Weather History for Kokomo, IN

Change the Weather History Date:

Sunday, June 16, 2013

  Actual Average (KGUS) Record (KGUS)
Temperature  
Mean Temperature 73 °F -  
Max Temperature 80 °F 78 °F 92 °F (2012)
Min Temperature 66 °F 62 °F 53 °F (1999)
Cooling Degree Days 8    
Growing Degree Days 23 (Base 50)    
Moisture  
Dew Point 65 °F    
Average Humidity 74    
Maximum Humidity 88    
Minimum Humidity 61    
Precipitation  
Precipitation 0.03 in - - ()
Sea Level Pressure  
Sea Level Pressure 29.93 in    
Wind  
Wind Speed 12 mph (WSW)    
Max Wind Speed 20 mph    
Max Gust Speed 32 mph    
Visibility 10 miles    
Events Thunderstorm    
Averages and records for this station are not official NWS values.
T = Trace of Precipitation, MM = Missing Value Source: NWS Daily Summary

Daily Weather History Graph

Daily Weather History Graph

Search for Another Location

Airport:

Trip Planner

Search our weather history database for the weather conditions in past years. The results will help you decide how hot, cold, wet, or windy it might be!

Date:

Astronomy

Jun. 16, 2013 Rise Set
Actual Time 5:13 AM CDT 8:17 PM CDT
Civil Twilight 4:39 AM CDT 8:50 PM CDT
Nautical Twilight 3:57 AM CDT 9:32 PM CDT
Astronomical Twilight 3:07 AM CDT 10:22 PM CDT
Moon 12:50 PM CDT (6/16) 12:19 AM CDT (6/16)
Length of Visible Light 16h 10m
Length of Day
15h 03m
Waxing Crescent, 50% of the Moon is Illuminated
Jun 16
Waxing Crescent
Jun 16
First Quarter
Jun 23
Full
Jun 29
Last Quarter
Jul 8
New

Hourly Weather History & Observations

Time (CDT) Temp. Heat Index Dew Point Humidity Pressure Visibility Wind Dir Wind Speed Gust Speed Precip Events Conditions
12:15 AM 68.0 °F - 62.6 °F 83% 29.94 in 10.0 mi SW 6.9 mph - N/A   Mostly Cloudy
12:35 AM 69.8 °F - 62.6 °F 78% 29.93 in 10.0 mi SW 5.8 mph - N/A   Overcast
12:55 AM 69.8 °F - 62.6 °F 78% 29.93 in 10.0 mi SW 8.1 mph - N/A   Overcast
1:15 AM 71.6 °F - 64.4 °F 78% 29.96 in 10.0 mi West 19.6 mph 32.2 mph 0.02 in Thunderstorm Mostly Cloudy
1:35 AM 69.8 °F - 64.4 °F 83% 29.95 in 10.0 mi West 15.0 mph 21.9 mph 0.03 in   Overcast
1:55 AM 69.8 °F - 64.4 °F 83% 29.94 in 10.0 mi West 12.7 mph - 0.03 in   Mostly Cloudy
2:15 AM 69.8 °F - 64.4 °F 83% 29.93 in 10.0 mi West 12.7 mph - N/A   Mostly Cloudy
2:35 AM 69.8 °F - 64.4 °F 83% 29.93 in 10.0 mi WSW 9.2 mph - N/A   Mostly Cloudy
2:55 AM 69.8 °F - 64.4 °F 83% 29.92 in 10.0 mi WSW 15.0 mph 18.4 mph N/A   Overcast
3:15 AM 68.0 °F - 62.6 °F 83% 29.91 in 10.0 mi SW 16.1 mph - N/A   Overcast
3:35 AM 66.2 °F - 62.6 °F 88% 29.90 in 10.0 mi SW 10.4 mph - N/A   Scattered Clouds
3:55 AM 68.0 °F - 62.6 °F 83% 29.90 in 10.0 mi SW 6.9 mph - N/A   Partly Cloudy
4:15 AM 68.0 °F - 62.6 °F 83% 29.90 in 10.0 mi WSW 8.1 mph - N/A   Mostly Cloudy
4:35 AM 68.0 °F - 62.6 °F 83% 29.90 in 10.0 mi WSW 6.9 mph - N/A   Mostly Cloudy
4:55 AM 68.0 °F - 62.6 °F 83% 29.91 in 10.0 mi West 6.9 mph - N/A   Mostly Cloudy
5:15 AM 68.0 °F - 60.8 °F 78% 29.91 in 10.0 mi West 11.5 mph - N/A   Scattered Clouds
5:35 AM 68.0 °F - 62.6 °F 83% 29.92 in 10.0 mi WNW 17.3 mph - N/A   Mostly Cloudy
5:55 AM 68.0 °F - 62.6 °F 83% 29.92 in 10.0 mi West 15.0 mph - N/A   Scattered Clouds
6:15 AM 69.8 °F - 60.8 °F 73% 29.93 in 10.0 mi West 13.8 mph - N/A   Mostly Cloudy
6:35 AM 69.8 °F - 60.8 °F 73% 29.94 in 10.0 mi West 13.8 mph - N/A   Mostly Cloudy
6:55 AM 69.8 °F - 60.8 °F 73% 29.94 in 10.0 mi West 16.1 mph 24.2 mph N/A   Overcast
7:15 AM 69.8 °F - 62.6 °F 78% 29.95 in 10.0 mi West 15.0 mph 18.4 mph N/A   Mostly Cloudy
7:35 AM 69.8 °F - 62.6 °F 78% 29.95 in 10.0 mi West 16.1 mph 19.6 mph N/A   Partly Cloudy
7:55 AM 69.8 °F - 62.6 °F 78% 29.95 in 10.0 mi West 12.7 mph - N/A   Clear
8:15 AM 69.8 °F - 62.6 °F 78% 29.95 in 10.0 mi West 12.7 mph - N/A   Clear
8:35 AM 69.8 °F - 62.6 °F 78% 29.94 in 10.0 mi WNW 11.5 mph - N/A   Partly Cloudy
8:55 AM 71.6 °F - 62.6 °F 73% 29.96 in 10.0 mi West 16.1 mph 20.7 mph N/A   Partly Cloudy
9:15 AM 71.6 °F - 62.6 °F 73% 29.96 in 10.0 mi West 15.0 mph - N/A   Scattered Clouds
9:35 AM 71.6 °F - 64.4 °F 78% 29.95 in 10.0 mi West 18.4 mph - N/A   Scattered Clouds
9:55 AM 73.4 °F - 64.4 °F 73% 29.95 in 10.0 mi West 19.6 mph 24.2 mph N/A   Partly Cloudy
10:15 AM 73.4 °F - 64.4 °F 73% 29.95 in 10.0 mi West 15.0 mph - N/A   Mostly Cloudy
10:35 AM 73.4 °F - 64.4 °F 73% 29.96 in 10.0 mi West 18.4 mph - N/A   Overcast
10:55 AM 73.4 °F - 64.4 °F 73% 29.96 in 10.0 mi West 17.3 mph - N/A   Overcast
11:15 AM 75.2 °F - 66.2 °F 73% 29.96 in 10.0 mi West 16.1 mph 20.7 mph N/A   Overcast
11:35 AM 77.0 °F - 66.2 °F 69% 29.96 in 10.0 mi West 16.1 mph - N/A   Overcast
11:55 AM 75.2 °F - 66.2 °F 73% 29.95 in 10.0 mi West 12.7 mph 21.9 mph N/A   Overcast
12:15 PM 77.0 °F - 66.2 °F 69% 29.95 in 10.0 mi West 12.7 mph 19.6 mph N/A   Mostly Cloudy
12:35 PM 78.8 °F - 66.2 °F 65% 29.95 in 10.0 mi West 12.7 mph 16.1 mph N/A   Mostly Cloudy
12:55 PM 78.8 °F - 66.2 °F 65% 29.95 in 10.0 mi WSW 15.0 mph 20.7 mph N/A   Mostly Cloudy
1:15 PM 78.8 °F - 66.2 °F 65% 29.95 in 10.0 mi WSW 15.0 mph - N/A   Mostly Cloudy
1:35 PM 78.8 °F - 66.2 °F 65% 29.94 in 10.0 mi WSW 16.1 mph 19.6 mph N/A   Mostly Cloudy
1:55 PM 78.8 °F - 66.2 °F 65% 29.94 in 10.0 mi West 15.0 mph 18.4 mph N/A   Overcast
2:15 PM 78.8 °F - 66.2 °F 65% 29.94 in 10.0 mi SW 16.1 mph - N/A   Overcast
2:35 PM 78.8 °F - 66.2 °F 65% 29.94 in 10.0 mi West 15.0 mph 18.4 mph N/A   Mostly Cloudy
2:55 PM 78.8 °F - 66.2 °F 65% 29.94 in 10.0 mi West 12.7 mph - N/A   Overcast
3:15 PM 80.6 °F 82.7 °F 66.2 °F 61% 29.93 in 10.0 mi West 15.0 mph - N/A   Mostly Cloudy
3:35 PM 80.6 °F 82.7 °F 66.2 °F 61% 29.93 in 10.0 mi West 13.8 mph 23.0 mph N/A   Scattered Clouds
3:55 PM 80.6 °F 82.7 °F 66.2 °F 61% 29.92 in 10.0 mi West 10.4 mph - N/A   Partly Cloudy
4:15 PM 80.6 °F 82.7 °F 66.2 °F 61% 29.92 in 10.0 mi West 12.7 mph - N/A   Partly Cloudy
4:35 PM 78.8 °F - 66.2 °F 65% 29.92 in 10.0 mi West 15.0 mph - N/A   Scattered Clouds
4:55 PM 80.6 °F 82.7 °F 66.2 °F 61% 29.92 in 10.0 mi West 17.3 mph - N/A   Scattered Clouds
5:15 PM 78.8 °F - 66.2 °F 65% 29.92 in 10.0 mi West 17.3 mph 23.0 mph N/A   Partly Cloudy
5:35 PM 80.6 °F 83.2 °F 68.0 °F 65% 29.91 in 10.0 mi West 12.7 mph - N/A   Partly Cloudy
5:55 PM 80.6 °F 83.2 °F 68.0 °F 65% 29.91 in 10.0 mi West 16.1 mph 21.9 mph N/A   Clear
6:15 PM 78.8 °F - 66.2 °F 65% 29.92 in 10.0 mi West 13.8 mph - N/A   Clear
6:35 PM 78.8 °F - 66.2 °F 65% 29.92 in 10.0 mi West 13.8 mph - N/A   Clear
6:55 PM 78.8 °F - 66.2 °F 65% 29.92 in 10.0 mi West 10.4 mph - N/A   Clear
7:15 PM 78.8 °F - 66.2 °F 65% 29.92 in 10.0 mi West 10.4 mph - N/A   Clear
7:35 PM 77.0 °F - 66.2 °F 69% 29.92 in 10.0 mi West 8.1 mph - N/A   Clear
7:55 PM 77.0 °F - 66.2 °F 69% 29.92 in 10.0 mi West 8.1 mph - N/A   Clear
8:15 PM 75.2 °F - 66.2 °F 73% 29.91 in 10.0 mi West 5.8 mph - N/A   Clear
8:35 PM 73.4 °F - 66.2 °F 78% 29.92 in 10.0 mi WSW 4.6 mph - N/A   Clear
8:55 PM 71.6 °F - 66.2 °F 83% 29.92 in 10.0 mi SW 6.9 mph - N/A   Clear
9:15 PM 71.6 °F - 66.2 °F 83% 29.93 in 10.0 mi SSW 6.9 mph - N/A   Clear
9:35 PM 71.6 °F - 66.2 °F 83% 29.93 in 10.0 mi SSW 5.8 mph - N/A   Clear
9:55 PM 71.6 °F - 66.2 °F 83% 29.94 in 10.0 mi SW 6.9 mph - N/A   Mostly Cloudy
10:15 PM 71.6 °F - 66.2 °F 83% 29.94 in 10.0 mi SW 6.9 mph - N/A   Scattered Clouds
10:35 PM 71.6 °F - 66.2 °F 83% 29.94 in 10.0 mi SW 6.9 mph - N/A   Partly Cloudy
10:55 PM 71.6 °F - 66.2 °F 83% 29.94 in 10.0 mi SW 8.1 mph - N/A   Scattered Clouds
11:15 PM 71.6 °F - 66.2 °F 83% 29.93 in 10.0 mi SW 8.1 mph - N/A   Partly Cloudy
11:35 PM 71.6 °F - 66.2 °F 83% 29.94 in 10.0 mi SW 9.2 mph - N/A   Clear
11:55 PM 69.8 °F - 66.2 °F 88% 29.94 in 10.0 mi SW 8.1 mph - N/A   Clear